When you browse on this site, cookies collect data to enhance your experience and personalize the content and advertising you see.
Visit our Privacy Policy to learn more. By continuing to use the site, you agree to this use of cookies and data.
  • In Lithuania
  • List of Countries
  • For 7 days
  • Water Temperature
  • Satellite Maps
  • Weather Map
  • Weather Widgets
  • user-avatar
    Login

    Hourly Weather Dyagli

    Today, 22 April, Monday

    Time Temperature Precipitation Wind Pressure Humidity
    00:00 +7°C° 0.4 mm 3 mps 752 mmHg 89%
    01:00 +7°C° 0.4 mm 3 mps 752 mmHg 90%
    02:00 +5°C° 0 mm 3 mps 752 mmHg 93%
    03:00 +5°C° 0 mm 3 mps 753 mmHg 94%
    04:00 +5°C° 0 mm 4 mps 753 mmHg 95%
    05:00 +4°C° 0 mm 4 mps 753 mmHg 96%
    06:00 +6°C° 0 mm 5 mps 753 mmHg 90%
    07:00 +7°C° 0 mm 5 mps 754 mmHg 85%
    08:00 +8°C° 0 mm 6 mps 755 mmHg 78%
    09:00 +10°C° 0 mm 6 mps 755 mmHg 69%
    10:00 +13°C° 0 mm 6 mps 755 mmHg 60%
    11:00 +14°C° 0 mm 7 mps 755 mmHg 51%
    12:00 +15°C° 0 mm 7 mps 756 mmHg 48%
    13:00 +15°C° 0 mm 7 mps 756 mmHg 45%
    14:00 +16°C° 0 mm 6 mps 756 mmHg 42%
    15:00 +15°C° 0 mm 6 mps 756 mmHg 42%
    16:00 +15°C° 0 mm 6 mps 756 mmHg 43%
    17:00 +15°C° 0 mm 5 mps 756 mmHg 43%
    18:00 +13°C° 0 mm 5 mps 756 mmHg 47%
    19:00 +12°C° 0 mm 4 mps 756 mmHg 50%
    20:00 +10°C° 0 mm 4 mps 757 mmHg 53%
    21:00 +10°C° 0 mm 4 mps 757 mmHg 54%
    22:00 +8°C° 0 mm 4 mps 757 mmHg 54%
    23:00 +7°C° 0 mm 4 mps 758 mmHg 54%

    Tomorrow, 23 April, Tuesday

    Time Temperature Precipitation Wind Pressure Humidity
    00:00 +7°C° 0 mm 4 mps 758 mmHg 55%
    01:00 +7°C° 0 mm 4 mps 758 mmHg 57%
    02:00 +6°C° 0 mm 4 mps 758 mmHg 58%
    03:00 +6°C° 0 mm 4 mps 758 mmHg 60%
    04:00 +6°C° 0 mm 4 mps 758 mmHg 61%
    05:00 +5°C° 0 mm 4 mps 758 mmHg 62%
    06:00 +7°C° 0 mm 5 mps 758 mmHg 59%
    07:00 +8°C° 0 mm 6 mps 758 mmHg 56%
    08:00 +10°C° 0 mm 6 mps 758 mmHg 53%
    09:00 +11°C° 0 mm 7 mps 758 mmHg 48%
    10:00 +13°C° 0 mm 8 mps 758 mmHg 44%
    11:00 +15°C° 0 mm 8 mps 758 mmHg 40%
    12:00 +16°C° 0 mm 8 mps 757 mmHg 39%
    13:00 +16°C° 0 mm 8 mps 757 mmHg 38%
    14:00 +17°C° 0 mm 8 mps 757 mmHg 38%
    15:00 +17°C° 0 mm 8 mps 756 mmHg 39%
    16:00 +16°C° 0 mm 8 mps 756 mmHg 41%
    17:00 +16°C° 0 mm 7 mps 756 mmHg 42%
    18:00 +15°C° 0 mm 7 mps 756 mmHg 46%
    19:00 +14°C° 0 mm 6 mps 756 mmHg 50%
    20:00 +12°C° 0 mm 5 mps 756 mmHg 53%
    21:00 +12°C° 0 mm 5 mps 756 mmHg 53%
    22:00 +10°C° 0 mm 6 mps 756 mmHg 52%
    23:00 +10°C° 0 mm 6 mps 756 mmHg 52%

    Day after tomorrow, 24 April, Wednesday

    Time Temperature Precipitation Wind Pressure Humidity
    00:00 +9°C° 0 mm 6 mps 756 mmHg 53%
    01:00 +9°C° 0 mm 6 mps 756 mmHg 54%
    02:00 +9°C° 0 mm 6 mps 756 mmHg 55%
    03:00 +8°C° 0 mm 6 mps 756 mmHg 57%
    04:00 +8°C° 0 mm 6 mps 756 mmHg 58%
    05:00 +7°C° 0 mm 6 mps 755 mmHg 59%
    06:00 +9°C° 0 mm 7 mps 755 mmHg 57%
    07:00 +10°C° 0 mm 8 mps 755 mmHg 54%
    08:00 +11°C° 0 mm 9 mps 756 mmHg 52%
    09:00 +12°C° 0 mm 9 mps 755 mmHg 49%
    10:00 +13°C° 0 mm 9 mps 755 mmHg 47%
    11:00 +15°C° 0 mm 9 mps 755 mmHg 44%
    12:00 +16°C° 0 mm 9 mps 755 mmHg 44%
    13:00 +16°C° 0 mm 10 mps 755 mmHg 44%
    14:00 +17°C° 0 mm 10 mps 755 mmHg 44%
    15:00 +16°C° 0 mm 9 mps 755 mmHg 46%
    16:00 +16°C° 0 mm 8 mps 754 mmHg 48%
    17:00 +15°C° 0 mm 8 mps 754 mmHg 51%
    18:00 +14°C° 0 mm 7 mps 754 mmHg 53%
    19:00 +13°C° 0 mm 6 mps 754 mmHg 55%
    20:00 +13°C° 0 mm 5 mps 754 mmHg 58%
    21:00 +13°C° 0 mm 6 mps 754 mmHg 57%
    22:00 +13°C° 0 mm 6 mps 755 mmHg 56%
    23:00 +13°C° 0 mm 6 mps 755 mmHg 55%

    25 April, Thursday

    Time Temperature Precipitation Wind Pressure Humidity
    00:00 +13°C° 0 mm 6 mps 755 mmHg 57%
    01:00 +11°C° 0 mm 6 mps 754 mmHg 59%
    02:00 +11°C° 0 mm 6 mps 754 mmHg 61%
    03:00 +10°C° 0 mm 5 mps 754 mmHg 63%
    04:00 +9°C° 0 mm 5 mps 754 mmHg 66%
    05:00 +9°C° 0 mm 5 mps 754 mmHg 69%
    06:00 +10°C° 0 mm 6 mps 754 mmHg 68%
    07:00 +10°C° 0 mm 6 mps 754 mmHg 67%
    08:00 +11°C° 0 mm 6 mps 754 mmHg 66%
    09:00 +14°C° 0 mm 6 mps 754 mmHg 63%
    10:00 +15°C° 0 mm 6 mps 754 mmHg 60%
    11:00 +17°C° 0 mm 6 mps 754 mmHg 57%
    12:00 +18°C° 0 mm 7 mps 754 mmHg 55%
    13:00 +20°C° 0 mm 7 mps 753 mmHg 52%
    14:00 +21°C° 0 mm 7 mps 753 mmHg 50%
    15:00 +21°C° 0 mm 7 mps 753 mmHg 50%
    16:00 +21°C° 0 mm 6 mps 752 mmHg 51%
    17:00 +21°C° 0 mm 6 mps 752 mmHg 51%
    18:00 +19°C° 0 mm 6 mps 752 mmHg 55%
    19:00 +17°C° 0 mm 5 mps 752 mmHg 59%
    20:00 +15°C° 0 mm 5 mps 752 mmHg 63%
    21:00 +15°C° 0 mm 5 mps 752 mmHg 63%
    22:00 +15°C° 0 mm 5 mps 752 mmHg 62%
    23:00 +15°C° 0 mm 5 mps 752 mmHg 62%

    26 April, Friday

    Time Temperature Precipitation Wind Pressure Humidity
    00:00 +14°C° 0.1 mm 5 mps 751 mmHg 65%
    01:00 +13°C° 0.1 mm 5 mps 751 mmHg 68%
    02:00 +13°C° 0.1 mm 5 mps 751 mmHg 71%
    03:00 +12°C° 0 mm 5 mps 751 mmHg 74%
    04:00 +12°C° 0 mm 5 mps 751 mmHg 77%
    05:00 +10°C° 0 mm 5 mps 750 mmHg 80%
    06:00 +12°C° 0 mm 5 mps 750 mmHg 79%
    07:00 +13°C° 0 mm 5 mps 750 mmHg 77%
    08:00 +14°C° 0 mm 5 mps 750 mmHg 76%
    09:00 +16°C° 0 mm 5 mps 750 mmHg 71%
    10:00 +19°C° 0 mm 5 mps 750 mmHg 67%
    11:00 +21°C° 0 mm 5 mps 750 mmHg 63%
    12:00 +22°C° 0 mm 5 mps 749 mmHg 58%
    13:00 +24°C° 0 mm 6 mps 749 mmHg 54%
    14:00 +26°C° 0 mm 6 mps 748 mmHg 49%
    15:00 +26°C° 0 mm 6 mps 748 mmHg 50%
    16:00 +26°C° 0 mm 5 mps 748 mmHg 50%
    17:00 +26°C° 0 mm 5 mps 747 mmHg 51%
    18:00 +23°C° 0.7 mm 5 mps 747 mmHg 57%
    19:00 +22°C° 0.7 mm 5 mps 747 mmHg 64%
    20:00 +20°C° 0.7 mm 5 mps 747 mmHg 70%
    21:00 +19°C° 0 mm 5 mps 747 mmHg 74%
    22:00 +17°C° 0 mm 5 mps 747 mmHg 79%
    23:00 +16°C° 0 mm 5 mps 747 mmHg 83%

    27 April, Saturday

    Time Temperature Precipitation Wind Pressure Humidity
    00:00 +17°C° 0 mm 4 mps 747 mmHg 85%
    01:00 +15°C° 0 mm 4 mps 747 mmHg 88%
    02:00 +15°C° 0 mm 4 mps 746 mmHg 90%
    03:00 +16°C° 0 mm 3 mps 746 mmHg 91%
    04:00 +14°C° 0 mm 3 mps 747 mmHg 93%
    05:00 +14°C° 0 mm 3 mps 747 mmHg 94%
    06:00 +16°C° 0 mm 3 mps 747 mmHg 88%
    07:00 +17°C° 0 mm 4 mps 747 mmHg 83%
    08:00 +18°C° 0 mm 4 mps 747 mmHg 77%
    09:00 +20°C° 0.7 mm 4 mps 747 mmHg 74%
    10:00 +21°C° 0.7 mm 4 mps 747 mmHg 71%
    11:00 +22°C° 0.7 mm 4 mps 747 mmHg 67%
    12:00 +21°C° 1.1 mm 4 mps 748 mmHg 69%
    13:00 +21°C° 1.1 mm 4 mps 748 mmHg 71%
    14:00 +21°C° 1.1 mm 4 mps 748 mmHg 73%
    15:00 +20°C° 0.2 mm 4 mps 748 mmHg 75%
    16:00 +19°C° 0.2 mm 4 mps 748 mmHg 77%
    17:00 +18°C° 0.2 mm 4 mps 749 mmHg 79%
    18:00 +17°C° 0 mm 4 mps 749 mmHg 81%
    19:00 +16°C° 0 mm 3 mps 749 mmHg 83%
    20:00 +15°C° 0 mm 2 mps 750 mmHg 85%
    21:00 +14°C° 0 mm 3 mps 750 mmHg 87%
    22:00 +14°C° 0 mm 3 mps 750 mmHg 88%
    23:00 +13°C° 0 mm 3 mps 751 mmHg 89%
    Show more